Weather History for Chickasha, OK

Change the Weather History Date:

Tuesday, February 12, 2013

  Actual Average Record
Temperature  
Mean Temperature 38 °F -  
Max Temperature 44 °F 56 °F 81 °F (1962)
Min Temperature 33 °F 27 °F 7 °F (1986)
Degree Days  
Heating Degree Days 26    
Moisture  
Dew Point 33 °F    
Average Humidity 91    
Maximum Humidity 100    
Minimum Humidity 57    
Precipitation  
Precipitation 0.57 in - - ()
Sea Level Pressure  
Sea Level Pressure 30.02 in    
Wind  
Wind Speed 10 mph (NNE)    
Max Wind Speed 18 mph    
Max Gust Speed 24 mph    
Visibility 10 miles    
Events Rain    
Averages and records for this station are not official NWS values.
T = Trace of Precipitation, MM = Missing Value Source: NWS Daily Summary

Daily Weather History Graph

Daily Weather History Graph

Search for Another Location

Airport:

Trip Planner

Search our weather history database for the weather conditions in past years. The results will help you decide how hot, cold, wet, or windy it might be!

Date:

Astronomy

Feb. 12, 2013 Rise Set
Actual Time 7:20 AM CST 6:11 PM CST
Civil Twilight 6:54 AM CST 6:37 PM CST
Nautical Twilight 6:24 AM CST 7:07 PM CST
Astronomical Twilight 5:55 AM CST 7:37 PM CST
Moon 8:26 AM CST (2/12) 9:04 PM CST (2/12)
Length of Visible Light 11h 43m
Length of Day
10h 51m
Waxing Crescent, 7% of the Moon is Illuminated
Feb 12
Waxing Crescent
Feb 17
First Quarter
Feb 25
Full
Mar 4
Last Quarter
Mar 11
New

Hourly Weather History & Observations

Time (CST) Temp. Windchill Dew Point Humidity Pressure Visibility Wind Dir Wind Speed Gust Speed Precip Events Conditions
12:15 AM 44.6 °F 40.7 °F 30.2 °F 57% 30.06 in 10.0 mi East 6.9 mph - N/A   Overcast
12:35 AM 42.8 °F 39.3 °F 30.2 °F 61% 30.07 in 10.0 mi ESE 5.8 mph - N/A   Overcast
12:55 AM 42.8 °F 40.1 °F 30.2 °F 61% 30.06 in 10.0 mi East 4.6 mph - N/A   Overcast
1:15 AM 42.8 °F 39.3 °F 30.2 °F 61% 30.06 in 10.0 mi East 5.8 mph - N/A   Mostly Cloudy
1:35 AM 42.8 °F 40.1 °F 30.2 °F 61% 30.06 in 10.0 mi East 4.6 mph - N/A   Mostly Cloudy
1:55 AM 41.0 °F 39.0 °F 32.0 °F 70% 30.06 in 10.0 mi ENE 3.5 mph - N/A   Mostly Cloudy
2:15 AM 41.0 °F 39.0 °F 32.0 °F 70% 30.05 in 10.0 mi East 3.5 mph - N/A   Mostly Cloudy
2:35 AM 41.0 °F 38.0 °F 32.0 °F 70% 30.04 in 10.0 mi ENE 4.6 mph - N/A   Overcast
2:55 AM 41.0 °F 38.0 °F 32.0 °F 70% 30.04 in 10.0 mi NE 4.6 mph - N/A   Overcast
3:15 AM 41.0 °F 38.0 °F 32.0 °F 70% 30.04 in 10.0 mi NE 4.6 mph - N/A   Overcast
3:35 AM 39.2 °F - 32.0 °F 75% 30.05 in 10.0 mi Calm Calm - N/A   Overcast
3:55 AM 39.2 °F 34.2 °F 32.0 °F 75% 30.05 in 10.0 mi North 6.9 mph - N/A   Overcast
4:15 AM 39.2 °F 33.0 °F 32.0 °F 75% 30.04 in 10.0 mi NNE 9.2 mph - N/A   Overcast
4:35 AM 39.2 °F 32.5 °F 32.0 °F 75% 30.05 in 10.0 mi NE 10.4 mph - N/A   Overcast
4:55 AM 39.2 °F 31.6 °F 32.0 °F 75% 30.04 in 10.0 mi NE 12.7 mph - N/A   Overcast
5:15 AM 39.2 °F 32.0 °F 32.0 °F 75% 30.01 in 10.0 mi NE 11.5 mph - N/A   Overcast
5:35 AM 37.4 °F 32.1 °F 32.0 °F 81% 30.00 in 10.0 mi NE 6.9 mph - N/A Rain Light Rain
5:55 AM 37.4 °F 29.8 °F 32.0 °F 81% 29.99 in 10.0 mi NE 11.5 mph - N/A   Overcast
6:15 AM 37.4 °F 31.4 °F 33.8 °F 87% 30.00 in 10.0 mi NE 8.1 mph - N/A Rain Light Rain
6:35 AM 37.4 °F 30.3 °F 35.6 °F 93% 29.99 in 10.0 mi ENE 10.4 mph - 0.03 in Rain Light Rain
6:55 AM 37.4 °F 31.4 °F 33.8 °F 87% 30.00 in 10.0 mi ENE 8.1 mph - 0.06 in Rain Light Rain
7:15 AM 37.4 °F 30.8 °F 35.6 °F 93% 29.99 in 10.0 mi NE 9.2 mph - 0.03 in Rain Light Rain
7:35 AM 35.6 °F 27.5 °F 33.8 °F 93% 29.99 in 10.0 mi NE 11.5 mph - 0.06 in Rain Light Rain
7:55 AM 35.6 °F 27.1 °F 33.8 °F 93% 30.01 in 10.0 mi NE 12.7 mph - 0.08 in Rain Light Rain
8:15 AM 35.6 °F 28.0 °F 33.8 °F 93% 30.03 in 10.0 mi NE 10.4 mph - 0.05 in Rain Light Rain
8:35 AM 35.6 °F 25.9 °F 33.8 °F 93% 30.01 in 10.0 mi NE 16.1 mph - 0.13 in Rain Light Rain
8:55 AM 35.6 °F 25.9 °F 33.8 °F 93% 30.00 in 10.0 mi NE 16.1 mph 19.6 mph 0.17 in Rain Light Rain
9:15 AM 35.6 °F 27.1 °F 33.8 °F 93% 30.02 in 10.0 mi NNE 12.7 mph 20.7 mph 0.01 in Rain Light Rain
9:35 AM 35.6 °F 27.1 °F 33.8 °F 93% 30.04 in 10.0 mi NNE 12.7 mph - 0.05 in Rain Light Rain
9:55 AM 33.8 °F 23.9 °F 33.8 °F 100% 30.04 in 10.0 mi North 15.0 mph - 0.08 in Rain Light Rain
10:15 AM 33.8 °F 25.3 °F 32.0 °F 93% 30.06 in 7.0 mi North 11.5 mph - 0.05 in Rain Light Rain
10:35 AM 33.8 °F 26.4 °F 32.0 °F 93% 30.05 in 5.0 mi North 9.2 mph - 0.08 in   Overcast
10:55 AM 33.8 °F 25.3 °F 32.0 °F 93% 30.05 in 7.0 mi NNE 11.5 mph - 0.11 in   Overcast
11:15 AM 33.8 °F 24.3 °F 33.8 °F 100% 30.04 in 10.0 mi NNE 13.8 mph - 0.01 in   Overcast
11:35 AM 33.8 °F 24.3 °F 33.8 °F 100% 30.03 in 10.0 mi NNE 13.8 mph - 0.01 in   Overcast
11:55 AM 33.8 °F 24.8 °F 33.8 °F 100% 30.03 in 7.0 mi NNE 12.7 mph 17.3 mph 0.02 in   Overcast
12:15 PM 35.6 °F 25.9 °F 35.6 °F 100% 30.01 in 10.0 mi NNE 16.1 mph - N/A Rain Light Rain
12:35 PM 35.6 °F 26.2 °F 35.6 °F 100% 30.00 in 10.0 mi NNE 15.0 mph 20.7 mph N/A   Overcast
12:55 PM 35.6 °F 25.9 °F 35.6 °F 100% 29.99 in 10.0 mi NNE 16.1 mph - N/A   Overcast
1:15 PM 35.6 °F 26.2 °F 35.6 °F 100% 29.99 in 7.0 mi NE 15.0 mph - N/A   Overcast
1:35 PM 35.6 °F 25.9 °F 35.6 °F 100% 29.96 in 7.0 mi NE 16.1 mph - N/A   Overcast
1:55 PM 35.6 °F 27.5 °F 35.6 °F 100% 29.98 in 7.0 mi NNE 11.5 mph 18.4 mph N/A   Overcast
2:15 PM 35.6 °F 26.2 °F 35.6 °F 100% 29.97 in 10.0 mi NE 15.0 mph 18.4 mph 0.01 in   Overcast
2:35 PM 35.6 °F 26.2 °F 35.6 °F 100% 29.95 in 10.0 mi NE 15.0 mph 21.9 mph 0.01 in   Overcast
2:55 PM 35.6 °F 25.2 °F 35.6 °F 100% 29.95 in 10.0 mi NE 18.4 mph - 0.01 in   Overcast
3:15 PM 35.6 °F 26.6 °F 35.6 °F 100% 29.95 in 10.0 mi NNE 13.8 mph - N/A   Overcast
3:35 PM 35.6 °F 26.6 °F 35.6 °F 100% 29.96 in 10.0 mi NNE 13.8 mph - N/A   Overcast
3:55 PM 35.6 °F 25.9 °F 33.8 °F 93% 29.97 in 10.0 mi North 16.1 mph - 0.01 in Rain Light Rain
4:15 PM 35.6 °F 27.1 °F 33.8 °F 93% 29.97 in 10.0 mi North 12.7 mph - N/A Rain Light Rain
4:35 PM 33.8 °F 24.3 °F 33.8 °F 100% 29.98 in 10.0 mi North 13.8 mph - 0.01 in Rain Light Rain
4:55 PM 33.8 °F 25.3 °F 33.8 °F 100% 29.98 in 7.0 mi North 11.5 mph - 0.01 in   Overcast
5:15 PM 33.8 °F 25.3 °F 33.8 °F 100% 29.98 in 10.0 mi North 11.5 mph - N/A   Overcast
5:35 PM 33.8 °F 24.3 °F 33.8 °F 100% 29.98 in 10.0 mi North 13.8 mph - 0.01 in   Overcast
5:55 PM 33.8 °F 23.9 °F 33.8 °F 100% 29.99 in 10.0 mi North 15.0 mph - 0.01 in   Overcast
6:15 PM 33.8 °F 24.3 °F 33.8 °F 100% 29.99 in 7.0 mi North 13.8 mph - 0.01 in   Overcast
6:35 PM 33.8 °F 23.9 °F 33.8 °F 100% 30.00 in 10.0 mi North 15.0 mph - 0.01 in   Overcast
6:55 PM 33.8 °F 23.9 °F 33.8 °F 100% 30.01 in 10.0 mi North 15.0 mph - 0.01 in   Overcast
7:15 PM 33.8 °F 23.2 °F 33.8 °F 100% 30.01 in 10.0 mi North 17.3 mph 21.9 mph N/A   Overcast
7:35 PM 33.8 °F 22.8 °F 33.8 °F 100% 30.02 in 10.0 mi North 18.4 mph 24.2 mph N/A   Overcast
7:55 PM 33.8 °F 23.2 °F 33.8 °F 100% 30.03 in 10.0 mi North 17.3 mph - N/A   Overcast
8:15 PM 33.8 °F 23.5 °F 33.8 °F 100% 30.04 in 10.0 mi North 16.1 mph - N/A   Overcast
8:35 PM 33.8 °F 23.9 °F 33.8 °F 100% 30.04 in 10.0 mi North 15.0 mph - N/A   Overcast
8:55 PM 33.8 °F 23.5 °F 33.8 °F 100% 30.05 in 10.0 mi North 16.1 mph 20.7 mph N/A   Overcast
9:15 PM 33.8 °F 23.9 °F 33.8 °F 100% 30.05 in 10.0 mi North 15.0 mph - N/A   Overcast
9:35 PM 33.8 °F 26.4 °F 33.8 °F 100% 30.06 in 10.0 mi North 9.2 mph - N/A   Overcast
9:55 PM 33.8 °F 25.8 °F 33.8 °F 100% 30.06 in 10.0 mi North 10.4 mph - N/A   Overcast
10:15 PM 33.8 °F 25.8 °F 33.8 °F 100% 30.07 in 10.0 mi NNW 10.4 mph - N/A   Overcast
10:35 PM 33.8 °F 25.3 °F 33.8 °F 100% 30.07 in 10.0 mi North 11.5 mph - N/A   Overcast
10:55 PM 33.8 °F 26.4 °F 33.8 °F 100% 30.07 in 10.0 mi North 9.2 mph - N/A   Overcast
11:15 PM 33.8 °F 27.0 °F 33.8 °F 100% 30.07 in 10.0 mi North 8.1 mph - N/A   Overcast
11:35 PM 33.8 °F 27.0 °F 32.0 °F 93% 30.07 in 10.0 mi North 8.1 mph - N/A   Overcast
11:55 PM 33.8 °F 26.4 °F 32.0 °F 93% 30.07 in 10.0 mi North 9.2 mph - N/A   Overcast